Temp
25 24 24 25 26 27 27 27 27 29 31 31 30 30 30 29 30 30 28 27 27 25 22 23 23 23 23 22 22 21 21 20 20 19 19 19 18 18 17 17 16 15 15 15
24 23 26 27 28 27 27 27 27 29 31 30 30 29 29 30 30 28 28 27 27 23 22 22 21 23 23 22 22 21 21 20 20 19 19 18 18 18 17 17 16 16 16 16
24 25 27 27 27 27 27 27 27 27 29 30 30 28 29 31 31 30 29 28 24 23 22 21 21 21 22 22 22 21 21 20 19 19 19 19 18 18 18 17 17 16 16 16
24 26 27 26 26 27 26 29 29 29 28 26 31 25 28 29 28 29 30 25 24 23 22 21 20 19 22 22 22 21 21 20 20 19 19 18 17 16 16 17 17 16 16 16
25 26 26 27 27 28 27 30 29 29 28 27 28 25 26 29 28 28 30 26 24 23 22 21 20 21 22 22 22 21 21 20 20 19 19 19 17 16 17 17 16 16 16 16
26 28 28 27 29 29 30 29 29 29 28 24 26 25 27 26 28 30 31 27 25 23 22 21 21 22 22 22 22 21 21 20 20 20 19 19 18 17 17 17 16 16 16 16
26 27 28 29 28 29 29 27 25 23 24 21 28 27 26 27 29 30 26 25 24 24 22 21 20 20 21 22 22 21 21 20 21 20 19 19 18 17 17 16 16 16 16 16
24 24 28 30 29 28 28 28 25 23 22 25 28 26 28 29 30 28 28 26 24 23 22 21 20 20 21 22 22 22 21 21 21 20 19 19 18 18 17 17 16 16 16 16
24 25 29 30 31 30 28 27 28 26 27 25 26 29 29 29 28 28 26 25 23 22 21 21 20 20 22 22 22 22 21 21 20 20 20 19 19 18 18 17 16 16 16 16
25 24 28 30 30 30 30 29 27 23 24 22 26 26 26 28 28 27 25 24 22 21 21 21 21 20 22 23 23 22 22 21 21 20 20 20 19 19 18 17 17 16 16 16
26 25 26 29 28 28 29 29 27 25 24 22 23 23 26 27 27 26 25 24 23 22 22 21 20 22 23 23 23 22 22 22 21 21 20 20 20 19 18 18 17 17 16 17
26 23 24 26 30 31 29 27 25 26 24 25 23 24 29 26 26 26 25 25 22 22 21 21 20 21 21 22 22 22 22 21 21 21 20 20 19 19 18 18 17 17 17 16
27 25 22 26 26 29 29 29 28 25 24 24 24 23 27 28 26 27 25 25 24 23 22 21 21 20 21 21 22 22 22 22 21 21 20 20 19 19 18 18 18 17 16 17
26 24 25 23 27 28 29 29 29 25 23 25 26 27 28 28 27 25 26 25 24 24 24 22 22 20 21 22 22 22 23 22 22 20 20 20 19 19 19 19 18 18 17 17
21 25 25 27 28 28 30 30 29 28 26 27 27 27 27 28 27 26 26 25 25 24 23 23 22 20 21 22 23 23 23 22 22 20 20 20 20 19 19 19 19 18 18 18
17 24 26 26 28 29 29 30 30 30 28 27 28 28 28 28 28 26 27 27 26 26 25 24 23 22 21 22 23 23 23 23 22 20 20 20 20 20 20 20 20 19 18 18
15 18 24 24 27 27 26 30 30 30 28 29 27 28 30 29 28 26 27 28 27 27 26 25 24 23 22 23 24 23 23 23 22 21 20 20 20 20 20 20 20 19 19 19
15 16 20 24 25 23 27 29 31 30 29 28 28 28 28 29 30 27 29 28 27 27 27 25 24 23 23 25 25 24 23 23 23 21 20 20 20 20 20 20 20 19 19 19
17 17 18 22 23 27 28 29 29 28 28 30 28 28 30 29 29 31 29 28 27 27 27 25 25 24 25 24 25 24 23 23 23 21 21 20 20 20 20 20 20 19 19 18
20 19 19 22 21 23 26 29 30 28 27 27 27 27 28 27 28 26 27 28 27 26 27 25 25 25 24 24 25 24 22 23 23 23 21 21 21 20 20 19 19 19 19 19
21 20 20 21 21 24 27 29 30 26 24 27 28 26 27 26 25 27 27 28 27 27 26 26 25 24 24 24 25 23 23 22 23 23 22 22 21 21 20 19 19 19 19 19
18 21 21 21 23 24 29 29 27 25 28 26 26 26 26 26 27 28 27 26 27 27 26 26 25 24 24 24 24 23 23 24 24 24 23 22 22 21 20 19 19 19 19 19
17 16 16 19 21 24 26 29 26 25 26 28 27 26 26 26 27 27 28 26 27 27 26 27 25 23 23 24 24 23 24 24 24 24 24 23 22 21 20 19 19 19 19 18
14 13 15 16 18 20 23 20 21 25 27 28 27 26 26 26 27 27 26 26 27 27 27 27 25 24 23 23 24 24 25 25 25 25 23 23 22 21 20 20 19 19 19 18
12 12 15 16 17 17 18 18 20 20 21 27 28 27 27 26 26 26 26 28 29 27 28 27 25 24 24 24 23 24 25 25 25 25 22 21 21 21 20 19 19 19 19 19
12 13 14 14 16 15 15 17 19 19 19 18 16 26 26 27 27 27 26 27 27 26 28 27 26 25 24 24 24 24 25 25 25 24 21 20 20 20 19 19 18 18 19 19
Height
727 744 745 738 735 736 741 745 744 725 708 719 720 718 708 700 700 705 705 702 699 702 707 713 719 725 731 735 742 748 752 754 755 754 753 751 749 748 746 745 743 741 741 741
736 728 723 721 725 734 734 741 740 722 707 711 717 718 707 697 697 696 695 696 696 705 711 715 720 724 729 734 740 746 751 753 754 753 752 750 748 746 745 743 741 739 739 738
723 711 712 720 724 731 729 735 734 734 711 701 711 722 708 692 687 686 684 683 693 700 708 713 718 723 728 733 738 745 749 751 752 752 750 749 747 745 743 742 740 738 737 737
710 705 706 715 720 719 734 711 716 719 725 746 701 756 717 704 702 690 682 687 692 698 704 709 715 721 726 732 738 744 748 750 751 751 750 748 747 745 742 741 740 738 737 738
695 698 702 706 705 704 713 699 705 708 719 728 719 744 725 702 710 697 682 683 690 693 699 707 714 720 726 732 738 743 747 749 750 749 749 748 746 744 742 741 740 738 737 737
683 675 685 691 688 689 687 700 702 704 714 752 727 736 724 719 702 688 676 681 688 695 702 708 714 719 725 732 737 742 746 748 749 749 749 747 747 745 743 742 740 738 737 737
681 677 672 672 688 681 687 709 740 757 750 762 711 727 722 695 684 679 687 687 691 694 701 709 714 720 725 731 736 741 744 747 748 749 749 748 748 746 745 743 741 739 738 737
693 698 667 655 668 682 686 696 727 759 759 742 709 732 709 677 668 673 675 682 688 696 701 707 712 718 724 730 735 739 742 745 747 748 749 748 748 747 745 744 742 740 738 738
680 676 643 646 649 661 678 692 680 713 708 734 721 695 680 671 676 676 682 685 693 697 702 706 711 717 723 729 733 737 741 743 746 747 748 748 749 747 746 746 744 741 741 740
653 682 646 642 645 645 658 661 699 715 743 758 726 715 715 689 684 681 688 692 695 698 702 705 710 716 722 727 732 736 739 743 745 746 748 748 749 748 747 747 746 745 744 743
653 663 655 644 650 658 661 670 677 694 714 746 749 735 677 676 675 680 685 686 691 696 700 704 709 715 720 726 731 735 739 742 744 746 747 748 749 749 749 749 748 747 747 746
635 658 671 652 627 626 642 661 674 695 718 711 724 722 660 670 671 673 680 683 689 694 698 703 707 714 719 724 729 734 738 741 743 746 747 749 750 750 751 751 750 749 748 749
629 652 683 657 647 631 642 641 653 674 690 710 724 722 664 659 667 667 678 681 685 691 697 702 707 713 718 722 727 732 737 740 742 745 747 749 751 752 752 753 753 752 751 752
613 635 647 664 641 629 643 642 646 672 699 696 694 690 675 667 670 673 674 677 683 687 694 700 705 710 715 720 725 730 735 738 741 743 746 749 752 753 753 755 755 755 754 754
625 628 629 629 625 624 623 633 640 654 668 681 680 680 673 664 665 666 667 674 682 687 692 698 703 708 712 717 722 727 732 736 739 742 746 750 753 754 755 756 757 757 758 758
642 620 619 630 616 620 628 619 628 636 649 659 663 670 654 649 650 658 662 669 676 681 685 691 697 703 708 713 718 723 728 734 738 741 745 749 753 755 756 757 758 759 760 761
662 639 626 638 621 626 645 621 622 627 636 643 664 655 641 650 649 654 656 660 668 672 677 684 691 697 703 708 714 720 725 731 736 741 745 748 752 755 757 758 760 761 763 764
658 655 634 630 633 659 621 604 605 622 625 632 637 638 640 641 638 640 640 651 659 663 669 677 684 691 697 704 711 717 722 728 734 739 744 747 752 755 758 760 762 763 765 766
641 653 645 633 634 619 611 600 608 625 631 616 630 629 628 631 633 638 633 638 646 651 658 665 674 683 692 699 707 714 720 725 731 737 741 745 750 754 757 760 763 765 767 769
620 629 639 626 646 637 612 591 586 601 638 612 616 625 627 631 653 651 634 633 640 645 653 662 670 678 685 694 702 709 716 722 728 734 738 742 747 752 756 759 763 766 768 770
617 622 631 629 633 617 591 585 582 634 643 602 603 614 621 634 635 626 623 629 632 639 647 657 665 673 681 689 697 705 712 717 723 729 734 739 743 749 753 758 762 766 769 771
629 616 619 621 624 632 576 588 610 606 589 592 597 602 612 613 616 619 619 626 630 637 645 653 663 671 678 685 691 699 706 713 720 725 729 735 740 745 750 755 760 764 768 771
638 640 636 629 617 584 581 588 585 580 586 584 591 594 598 608 612 615 617 625 626 632 641 649 658 668 675 681 687 694 701 709 716 721 724 730 736 741 746 751 756 761 765 768
648 644 637 635 618 610 598 601 598 585 574 574 578 587 592 602 605 610 615 620 624 630 638 646 656 665 672 678 683 689 697 705 711 716 720 725 732 738 743 748 752 757 761 764
666 662 643 638 630 615 609 616 610 599 589 577 575 581 587 592 600 605 612 614 619 626 634 643 650 659 667 674 681 686 693 700 706 711 716 721 727 732 738 743 747 752 756 760
673 664 654 654 648 648 644 629 617 604 600 600 605 586 580 584 593 598 607 609 614 621 629 638 646 654 662 670 676 682 689 695 701 706 711 716 722 728 733 739 746 750 753 757
Wind_Speed
9 10 18 21 22 16 14 14 19 22 19 17 6 20 9 10 6 7 10 9 8 10 10 25 30 28 24 18 13 7 6 3 4 8 7 4 5 3 3 8 8 6 7 9
14 26 21 19 16 20 17 19 22 23 19 4 15 20 13 8 6 8 10 10 4 11 13 14 24 26 23 19 12 9 5 4 3 5 5 5 9 8 9 7 7 5 5 6
25 15 19 19 18 19 21 20 21 19 21 16 6 5 5 5 5 7 12 8 16 21 17 14 15 25 23 17 14 10 8 3 1 5 4 8 11 10 6 3 8 6 3 4
22 21 19 23 23 21 21 19 21 21 16 8 1 6 4 6 10 10 13 10 15 18 15 14 13 17 22 18 15 10 8 4 4 5 7 7 9 9 7 3 7 4 3 3
20 24 24 23 23 24 22 16 19 21 15 7 4 3 5 4 8 13 4 11 14 17 18 16 13 19 22 18 16 13 9 6 3 4 5 10 12 10 5 5 5 6 2 6
20 15 21 29 24 24 25 16 16 16 11 4 6 7 9 6 8 5 3 10 16 14 13 13 19 25 21 21 18 14 12 7 2 5 8 11 11 10 8 7 6 6 2 3
22 25 22 23 22 23 20 14 9 3 3 6 5 4 9 9 7 7 10 13 12 15 16 15 14 11 21 23 19 15 14 9 3 7 6 8 7 8 8 7 9 9 5 8
17 12 27 24 26 21 19 15 7 7 4 5 6 7 10 14 10 9 14 14 13 14 14 13 14 14 22 21 20 17 16 13 7 9 7 6 6 4 6 8 9 8 9 9
19 17 11 26 18 23 16 12 13 5 1 2 5 6 6 7 8 10 14 13 12 13 13 13 13 19 23 22 19 13 17 13 13 9 5 4 4 4 5 6 9 8 9 9
5 5 21 21 18 18 22 7 7 1 8 6 5 6 6 7 9 10 11 11 10 10 12 12 12 17 24 24 19 13 15 14 13 9 8 5 5 5 6 7 9 10 10 13
17 4 7 19 21 23 12 12 4 7 6 5 2 7 7 12 9 14 12 12 14 13 12 12 10 21 27 24 20 14 14 15 14 10 9 7 8 6 7 10 11 10 12 12
31 6 10 15 18 22 14 10 7 8 6 5 5 6 9 8 12 13 13 13 10 11 11 11 11 18 24 24 21 16 13 18 14 12 10 8 10 7 7 11 11 10 14 13
22 18 4 5 8 11 18 14 9 6 6 8 5 5 6 10 9 16 14 13 14 12 11 10 12 11 18 22 24 19 14 19 16 17 13 10 10 8 7 11 11 14 13 14
22 13 22 10 9 10 24 18 16 9 5 7 8 7 5 7 10 10 14 15 14 14 13 10 12 9 19 23 26 22 17 20 19 21 15 12 10 9 8 10 10 11 15 15
5 22 13 23 21 12 22 21 20 17 9 14 8 6 11 10 10 15 17 16 14 14 13 13 13 10 17 21 26 25 21 21 23 23 18 13 11 8 7 10 12 12 13 15
11 14 22 17 20 21 13 26 22 20 11 7 13 12 10 11 10 10 19 19 18 16 16 15 14 14 12 21 25 27 23 25 24 26 21 16 12 8 11 12 13 14 14 14
7 6 12 22 18 11 15 19 23 19 9 13 13 6 4 5 9 10 19 21 20 17 17 17 16 15 18 25 27 27 24 27 22 28 23 19 15 12 15 13 12 12 17 16
11 10 4 11 13 19 9 12 17 19 17 10 8 14 9 8 6 11 18 18 20 19 19 17 14 17 25 33 29 27 28 28 23 29 26 22 17 17 15 13 12 17 20 16
16 8 5 8 15 2 10 13 23 15 15 15 10 12 14 11 6 2 17 17 20 20 18 17 26 28 31 33 31 30 31 30 26 25 28 26 21 21 17 18 16 14 17 16
15 14 5 1 9 19 7 7 7 7 12 11 12 11 9 9 10 5 9 14 14 16 17 18 27 29 32 34 35 33 31 31 28 24 30 29 26 25 20 22 21 17 15 16
8 6 11 6 4 5 9 8 3 10 8 9 13 10 9 7 7 8 8 14 17 17 19 29 30 28 30 37 38 29 30 28 30 26 30 31 29 29 25 26 22 20 17 15
4 1 4 4 4 5 5 5 7 6 5 10 9 10 10 9 9 8 9 13 16 16 18 30 25 25 30 37 35 28 28 33 29 26 28 33 30 32 29 28 26 23 19 17
4 3 2 5 5 4 7 1 9 10 8 7 8 8 12 10 9 9 7 12 15 17 18 30 27 26 29 35 35 28 34 31 31 28 29 34 33 32 32 32 29 25 23 17
11 13 3 9 16 17 16 21 24 14 7 7 8 9 11 11 10 9 8 13 14 13 17 26 25 23 24 29 33 34 36 32 32 29 29 36 36 33 33 32 31 29 27 22
2 14 8 6 16 19 17 23 22 19 19 5 7 11 13 13 11 9 7 14 15 14 19 29 25 24 26 29 30 36 37 35 33 29 30 36 37 35 35 34 34 32 29 29
7 4 4 4 14 5 15 22 18 17 17 14 17 7 10 13 12 10 9 12 12 12 21 23 27 27 28 31 30 36 37 37 34 29 30 32 31 33 32 32 26 27 26 25
Wind_Direction
221 220 226 219 225 240 233 241 249 255 253 246 337 270 257 219 204 225 244 247 234 156 137 137 142 144 141 141 147 171 213 253 295 327 331 330 327 328 323 334 349 310 270 248
221 232 219 233 226 230 243 243 258 272 277 174 219 253 247 203 213 223 235 248 229 124 132 132 137 143 145 144 150 180 208 191 335 330 345 331 319 296 294 318 340 311 280 251
220 222 220 229 230 239 236 235 248 259 278 285 264 305 303 259 246 273 252 222 141 146 147 148 143 146 149 153 160 172 184 172 99 8 4 353 1 341 308 330 354 324 231 207
231 225 220 213 230 224 238 229 235 251 261 262 276 288 293 309 300 297 282 137 143 150 150 149 147 147 152 153 158 175 159 182 149 37 31 34 11 343 345 13 0 23 169 183
214 208 216 225 214 225 239 227 229 239 249 245 276 291 249 252 292 283 196 148 156 155 153 155 145 145 155 159 162 159 162 167 164 77 34 32 14 12 31 38 28 16 355 173
224 222 210 226 234 219 230 236 239 239 238 236 218 186 265 235 236 186 138 126 148 138 136 131 142 149 155 159 156 162 163 167 174 97 59 38 35 45 53 43 33 27 14 165
218 224 223 225 223 228 219 219 236 290 237 213 216 285 254 260 233 171 139 126 135 137 139 141 145 144 147 157 160 170 165 163 172 108 74 58 57 58 49 27 36 27 61 139
213 217 214 212 221 221 223 200 200 211 184 245 243 240 258 228 216 129 140 139 131 133 143 144 143 143 152 162 163 178 171 160 160 121 105 76 54 65 55 48 41 58 83 128
195 228 198 220 217 212 232 206 192 173 272 209 229 230 340 119 129 120 130 127 136 141 144 145 145 147 157 163 168 185 168 161 145 129 127 125 67 71 57 66 52 90 97 114
261 194 229 208 215 237 210 185 153 79 199 250 294 297 226 155 174 125 126 136 135 138 140 144 145 148 163 166 169 168 158 155 147 148 158 138 105 93 69 74 68 96 93 98
232 221 240 212 207 214 222 211 144 135 151 174 235 273 232 168 150 142 144 148 147 151 144 146 145 152 162 164 164 159 155 156 144 134 126 128 108 91 71 95 77 99 107 96
211 204 235 229 212 208 214 180 155 179 217 201 182 260 150 136 143 140 146 148 140 143 143 147 143 145 153 162 165 166 172 158 152 154 141 128 116 102 92 99 82 101 99 100
200 225 293 240 273 208 201 183 178 135 135 205 181 246 222 151 129 143 143 146 151 148 147 149 146 149 158 165 170 173 182 165 162 153 139 135 127 116 115 113 99 87 116 117
192 195 214 221 205 193 193 180 189 156 170 183 218 224 166 142 140 145 152 155 157 157 157 154 153 154 161 167 169 176 187 173 166 150 145 137 128 133 124 116 110 103 104 115
292 202 193 224 247 255 193 184 184 201 178 191 194 182 168 171 179 160 161 155 154 156 156 159 159 161 160 170 172 179 187 172 162 152 147 147 145 159 144 128 134 123 109 100
322 219 200 222 224 239 251 185 191 203 187 178 183 233 180 199 180 146 160 161 167 167 165 163 162 163 161 171 174 177 181 167 160 155 151 152 154 165 143 132 124 137 119 107
285 332 186 215 221 236 234 211 198 202 195 183 204 181 227 169 187 164 165 166 170 170 167 165 165 168 164 171 175 176 175 163 156 158 156 159 171 154 138 140 143 132 135 125
258 310 279 199 198 229 239 214 192 201 199 208 171 184 202 211 214 171 165 161 172 172 168 167 164 165 165 173 176 175 167 164 161 163 163 164 178 158 157 157 133 125 139 124
218 235 278 185 194 118 254 181 195 198 207 196 184 190 197 207 163 183 163 167 170 172 171 168 165 163 165 169 173 167 164 167 169 168 168 170 178 168 172 161 153 136 139 130
202 208 221 353 169 211 192 234 168 154 195 186 173 189 171 170 201 225 181 165 163 162 160 159 162 162 161 169 171 167 166 169 174 184 175 176 178 175 177 166 164 160 152 155
195 215 202 230 145 252 183 234 157 194 226 193 178 177 174 171 176 208 177 167 163 161 156 156 158 164 167 168 170 167 171 175 180 188 181 180 180 180 179 171 169 171 171 161
313 289 194 159 112 209 185 293 229 210 199 169 165 168 167 162 172 186 160 164 155 155 148 157 158 162 166 168 168 168 174 183 184 189 183 181 181 177 180 174 172 173 180 190
31 354 236 6 198 275 107 197 275 189 169 156 161 169 161 158 173 169 146 163 156 156 156 160 159 160 167 171 172 170 182 181 186 193 182 180 181 179 181 178 178 180 189 197
348 7 4 348 14 341 360 12 355 339 140 153 154 166 159 161 162 166 159 158 156 150 153 159 155 162 169 174 176 179 181 184 187 196 184 177 177 177 182 185 185 188 194 199
23 304 341 280 357 348 7 347 337 340 359 32 165 172 174 159 168 159 157 150 153 152 152 159 162 167 174 173 176 180 184 188 189 197 180 173 176 180 181 187 189 195 202 206
173 275 7 310 338 333 315 328 334 350 12 2 10 338 164 163 165 162 162 162 156 148 155 160 166 168 172 176 176 182 186 191 191 189 170 172 173 178 178 182 186 202 206 213